www.pogodaiklimat.ru

Погода и климат >> Архив погоды >> Россия >> Чукотка >> Валькаркай


ПОГОДА в Валькаркае

  • Прогноз погоды в Валькаркае
  • Монитор погоды в Валькаркае

АРХИВ ПОГОДЫ в Валькаркае

Время (UTC), дата Ветер
(напр.,м/с)
 
Видим.   Явления Облачность Т
(С)
Тd
(С)
f
(%)
Тe
(С)
Тes
(С)
Комфортность P
(гПа)
Po
(гПа)
Тmin
(С)
Tmax
(С)
R
(мм)
R24
(мм)
S
(см)
00 14.03 ЮЗ 1
{2}
20 км 4/0
[Ac trans Ci fib]
-32.5 -36.1 70 -37 -35 опасность
обморожения
1020.2 1019.6
03 14.03 ЮВ 3
{6}
20 км 3/0
[Ci fib]
-28.9 -32.0 74 -38 -37 опасность
обморожения
1018.6 1018.0
06 14.03 В 5
{7}
20 км 4/0
[Ac lent Ci fib]
-30.6 -34.3 70 -43 -43 опасность
обморожения
1017.9 1017.3
09 14.03 В 9-12
{12}
20 км позёмок 4/0
[Ac trans Ci fib]
-28.4 -31.5 75 -44 -44 опасность
обморожения
1016.7 1016.2 -27.9
12 14.03 В 6
{12}
20 км позёмок 4/0
[Ac trans Ci fib]
-28.3 -31.3 75 -41 -41 опасность
обморожения
1016.3 1015.7
15 14.03 В 10-11
{11}
20 км позёмок 3/0
[Ci fib]
-28.6 -31.6 75 -45 -45 опасность
обморожения
1014.4 1013.8
18 14.03 В 10-10
{13}
20 км сильный позёмок 4/0
[Ci fib]
-29.2 -32.2 75 -46 -46 опасность
обморожения
1013.8 1013.3
21 14.03 В 6
{11}
20 км позёмок 8/3 1000 м
[Sc Ac trans Ci fib]
-27.7 -30.8 75 -41 -41 опасность
обморожения
1014.0 1013.4 -29.6 19
00 15.03 В 4
{12}
20 км {метель} 8/3 600 м
[Sc Ac trans Ci fib]
-25.1 -28.2 75 -35 -35 опасность
обморожения
1013.2 1012.6
03 15.03 В 10-14
{14}
20 км позёмок 6/3 1000 м
[Sc Ac trans Ci fib]
-24.2 -26.6 80 -39 -39 опасность
обморожения
1012.1 1011.5
06 15.03 В 10-13
{14}
20 км позёмок 8/0
[Ac trans Ci fib]
-23.3 -25.8 80 -38 -38 опасность
обморожения
1012.2 1011.6
09 15.03 В 12-15
{18}
20 км сильный позёмок 8/0
[Ac trans Ci fib]
-23.3 -26.1 78 -39 -39 опасность
обморожения
1012.1 1011.6 -23.3
12 15.03 В 10-11
{17}
20 км сильный позёмок 8/0
[Ac trans Ci fib]
-26.9 -30.0 75 -43 -43 опасность
обморожения
1013.2 1012.6
15 15.03 В 8-11
{12}
20 км позёмок 6/0
[Ac trans Ci fib]
-27.5 -30.6 75 -42 -42 опасность
обморожения
1013.6 1013.0
18 15.03 В 7
{11}
20 км позёмок 8/0
[Ac trans Ci fib]
-28.9 -32.0 74 -43 -43 опасность
обморожения
1014.2 1013.6
21 15.03 В 7
{9}
20 км позёмок 4/0
[Ci fib]
-28.8 -31.8 75 -43 -43 опасность
обморожения
1015.0 1014.4 -29.4 20
00 16.03 В 3
{8}
20 км {метель} 3/0
[Ci fib]
-27.7 -30.8 75 -37 -35 опасность
обморожения
1015.9 1015.3
03 16.03 В 4
{5}
20 км 1/0
[Ci fib]
-26.9 -30.0 75 -37 -36 опасность
обморожения
1015.7 1015.1
06 16.03 В 5
{6}
20 км ясно -27.2 -30.3 75 -39 -39 опасность
обморожения
1016.1 1015.5
09 16.03 В 3
{6}
20 км 3/0
[Ci fib]
-28.1 -31.1 75 +23 +23 комфорт 1016.7 1016.1 -26.6
12 16.03 В 3
{4}
20 км 3/0
[Ac trans Ci fib]
-28.3 -31.3 75 +24 +24 комфорт 1016.6 1016.0
15 16.03 штиль 0
{3}
20 км 3/0
[Ac trans Ci fib]
-32.9 -36.4 71 +28 +28 очень
душно
1016.4 1015.8
18 16.03 З 1
{2}
20 км 3/0
[Ac trans]
-34.0 -38.2 66 1016.5 1015.9
21 16.03 штиль 0
{2}
20 км 3/1 300 м
[St Ac trans]
-30.8 -34.5 70 -31 -30 опасность
обморожения
1016.6 1016.0 -34.8 20
00 17.03 ЮЗ 2
{3}
20 км 3/1 300 м
[St Ac lent]
-31.3 -35.0 70 -39 -37 опасность
обморожения
1016.1 1015.5
03 17.03 ЮЗ 3
{4}
20 км 3/0
[Ac lent Ci fib]
-30.1 -33.9 69 -40 -39 опасность
обморожения
1015.2 1014.6
06 17.03 ЮЗ 2
{3}
20 км 6/3 1000 м
[Sc Ac trans]
-28.3 -31.3 75 -36 -36 опасность
обморожения
1014.8 1014.2
09 17.03 СЗ 1
{3}
10 км снежные кристаллы 8/8 1000 м
[Sc]
-29.2 -32.2 75 -33 -33 опасность
обморожения
1014.6 1014.0 -27.8 0.0
12 17.03 СЗ 2
{3}
4000 м слаб. снег 10/8 600 м
[Sc As trans]
-27.3 -30.4 75 -34 -34 опасность
обморожения
1013.5 1012.9
15 17.03 ЮЗ 2
{3}
4000 м слаб. снег 10/8 600 м
[Sc As trans]
-28.1 -31.1 75 -35 -35 опасность
обморожения
1012.2 1011.6
18 17.03 штиль 0
{2}
7000 м слаб. снег 10/6 200 м
[Frnb As op]
-27.6 -30.6 75 -28 -28 1011.5 1010.9
21 17.03 С 3
{4}
7000 м слаб. снег 10/8 200 м
[Frnb As op]
-26.7 -29.8 75 -36 -36 опасность
обморожения
1010.4 1009.9 -29.2 0.8 21
00 18.03 З 2
{4}
7000 м слаб. снег 10/6 200 м
[Frnb As op]
-25.9 -29.1 74 -33 -33 опасность
обморожения
1008.8 1008.2
03 18.03 З 4
{6}
6000 м слаб. снег 10/6 200 м
[Frnb As op]
-26.1 -29.2 75 -36 -36 опасность
обморожения
1006.9 1006.3
06 18.03 СЗ 3
{6}
6000 м слаб. снег 10/6 200 м
[Frnb As op]
-24.5 -27.2 78 -33 -33 опасность
обморожения
1005.0 1004.5
09 18.03 СЗ 3
{6}
4000 м слаб. снег 10/6 200 м
[Frnb As op]
-23.4 -25.9 80 -32 -32 опасность
обморожения
1003.7 1003.2 -23.4 1
12 18.03 СЗ 5
{7}
4000 м слаб. снег 10/8 200 м
[Frnb As op]
-21.9 -24.4 80 -32 -32 опасность
обморожения
1002.0 1001.5
15 18.03 СЗ 7
{9}
4000 м слаб. снег 10/6 200 м
[Frnb As op]
-22.0 -24.5 80 -34 -34 опасность
обморожения
1001.1 1000.6
18 18.03 СЗ 7-10
{12}
6000 м слаб. снег {метель} 10/6 200 м
[Frnb As op]
-22.2 -24.7 80 -35 -35 опасность
обморожения
1001.0 1000.4
21 18.03 СЗ 8-11
{12}
6000 м слаб. снег {метель} 10/8 180 м
[Frnb As op]
-22.5 -25.0 80 -36 -36 опасность
обморожения
1001.8 1001.3 -23.3 1 20
00 19.03 СЗ 9-11
{12}
3000 м слаб. снег {метель} 10/8 210 м
[Frnb As trans]
-22.4 -24.9 80 -36 -36 опасность
обморожения
1002.5 1001.9
03 19.03 З 9-11
{11}
3300 м слаб. снег {метель} 10/5 240 м
[Frnb As trans]
-21.4 -23.9 80 -35 -35 опасность
обморожения
1002.7 1002.2
06 19.03 З 9-12
{13}
3300 м сильный позёмок 10/5 300 м
[St Ac trans Ci fib]
-20.9 -23.4 80 -34 -34 опасность
обморожения
1003.2 1002.6
09 19.03 З 9-13
{14}
2000 м слаб. снег {метель} 10/5 300 м
[Sc As trans]
-21.3 -23.8 80 -35 -35 опасность
обморожения
1004.1 1003.5 -20.8 1
12 19.03 З 10-13
{14}
2000 м слаб. снег {метель} 10/10 750 м
[Sc]
-22.4 -24.9 80 -37 -37 опасность
обморожения
1004.7 1004.1
15 19.03 З 10-14
{14}
2000 м метель {снег} 10/10 540 м
[Sc]
-22.4 -24.8 81 -37 -37 опасность
обморожения
1005.1 1004.6
18 19.03 З 12-15
{17}
700 м сильная метель 10/10 600 м
[Sc]
-23.6 -26.1 80 -39 -39 опасность
обморожения
1006.3 1005.8
21 19.03 З 12-15
{16}
500 м сильная метель 10/10 480 м
[Sc]
-24.2 -26.6 80 -40 -40 опасность
обморожения
1008.3 1007.8 -24.2 0.7 19
00 20.03 З 13-16
{18}
900 м сильная метель 10/10 540 м
[Sc]
-24.5 -27.0 80 -41 -41 опасность
обморожения
1010.2 1009.6 -24.5
03 20.03 З 12-16
{18}
700 м сильная метель 9/9 600 м
[Sc]
-23.9 -26.4 80 -40 -40 опасность
обморожения
1012.0 1011.4
06 20.03 З 11-15
{17}
600 м сильная метель 10/10 600 м
[Sc]
-23.8 -26.3 80 -39 -39 опасность
обморожения
1014.8 1014.2
09 20.03 З 11-15
{16}
500 м сильная метель 10/10 600 м
[Sc]
-24.6 -27.0 80 -40 -40 опасность
обморожения
1018.2 1017.6 -23.4
12 20.03 З 12-17
{17}
500 м сильная метель 8/8 600 м
[Sc]
-24.8 -28.0 75 -41 -41 опасность
обморожения
1020.0 1019.4
15 20.03 З 12-17
{18}
500 м сильная метель 9/9 600 м
[Sc]
-23.2 -25.7 80 -39 -39 опасность
обморожения
1021.5 1021.0
18 20.03 З 12-16
{17}
700 м сильная метель 10/10 600 м
[Sc]
-21.8 -24.3 80 -37 -37 опасность
обморожения
1023.5 1023.0
21 20.03 З 10-15
{16}
3000 м метель 9/6 600 м
[Sc Ac trans Ci fib]
-22.0 -25.2 75 -36 -36 опасность
обморожения
1025.6 1025.0 -24.8 19

 

Местоположение метеостанции Валькаркай (Чукотка, Россия): широта 70.08 долгота 170.90 высота над уровнем моря 6 м.

В архиве по умолчанию представлена погода в Валькаркае за последнюю неделю. Архивные данные за месяц целиком и за предыдущие месяцы, начиная с января 2011 года, Вы можете получить, выбрав интересующий диапазон дат из раскрывающегося списка и нажав кнопку "Ввод!".


*Определитесь, кто Вы:
робот инопланетянин человек

Внимание! Время в таблицах - всемирное. Для получения местного времени необходимо прибавить поправку, которая равна 12 ч.

Смотрите также архив погоды в соседних городах и на ближайших метеорологических станциях:

Погода в Певеке (Чукотка, Россия) (50 км)
Погода на 21 км (Чукотка, Россия) (50 км)
Погода на Айон Острове (Чукотка, Россия) (115 км)
Погода в Комсомольской (Чукотка, Россия) (129 км)
Погода в Чауне (Чукотка, Россия) (134 км)
Погода в Паляваам-Глубокой (Чукотка, Россия) (163 км)
Погода в Раучуе (Чукотка, Россия) (181 км)
Погода на Мысе Биллингс (Чукотка, Россия) (184 км)
Погода в Майской (Чукотка, Россия) (196 км)
Погода в Билибино (Чукотка, Россия) (288 км)

Пояснения к столбцам:

Ветер - указаны скорость ветра в м/с - средняя за 10 мин, порывы в срок и между сроками (в фигурных скобках) и направление, откуда дует ветер: С - северный, СВ - северо-восточный, В - восточный, ЮВ - юго-восточный, Ю - южный, ЮЗ - юго-западный, З - западный, СЗ - северо-западный.
Видимость - горизонтальная дальность видимости в метрах или километрах. При видимости от 1 до 10 км при отсутствии осадков обычно наблюдается дымка, при ухудшении видимости до 1 км и менее - туман. В сухую погоду видимость может ухудшаться дымом, пылью или мглою.
Явления - указаны атмосферные явления, наблюдавшиеся в срок или в последний час перед сроком; фигурными скобками обозначены явления, наблюдавшиеся между сроками (за 1-3 часа до срока); квадратными скобками обозначены град или гололедные отложения с указанием их диаметра в мм.
Облачность - указаны через наклонную черту общая и нижняя облачность в баллах и высота нижней границы облаков в метрах; квадратными скобками обозначены формы облаков: Ci - перистые, Cs - перисто-слоистые, Cc - перисто-кучевые, Ac - высококучевые, As - высокослоистые, Sc - слоисто-кучевые, Ns - слоисто-дождевые, Cu - кучевые, Cb - кучево-дождевые. Подробнее классификацию облаков см. в Атласе облаков (PDF).
T - Температура воздуха - температура, измеренная на высоте 2 м над землей.
Td - Температура точки росы - температура, при понижении до которой содержащийся в воздухе водяной пар достигнет насыщения.
f - Относительная влажность воздуха - влажноcть воздуха, измеренная на высоте 2 м над землей.
Te - Эффективная температура - температура, которую ощущает одетый по сезону человек в тени. Характеристика душности погоды. При расчете учитывается влияние влажности воздуха и скорости ветра на теплоощущения человека.
Tes - Эффективная температура на солнце - температура, которую ощущает человек, с поправкой на солнечный нагрев. Характеристика знойности погоды. Зависит от высоты солнца над горизонтом, облачности и скорости ветра. Ночью, в пасмурную погоду, а также при ветре 12 м/с и более поправка равна нулю.
P - Атмосферное давление - приведенное к уровню моря атмосферное давление.
Po - Атмосферное давление - измеренное на уровне метеостанции атмосферное давление.
Tmin - Минимальная температура - минимум температуры воздуха на высоте 2 м над землей.
Tmax - Максимальная температура - максимум температуры воздуха на высоте 2 м над землей.
R - Количество осадков - Количество выпавших осадков за период времени, мм. При наведении курсора мыши на число - период времени, за который выпало указанное количество осадков.
R24 - Количество осадков - Количество выпавших осадков за 24 часа, мм.
S - Снежный покров - Высота снежного покрова, см. При наведении курсора мыши на число - состояние снежного покрова и степень покрытия местности в баллах.